Wind_Speed
7 7 7 7 7 7 7 7 7 7 7 7 7 8 8 8 8 8 9 9 10 10 10 9 9 10 10 10 10 10 10 10 10 11 11 12 12 12 12 13 13 14 14
7 7 7 8 8 8 8 8 8 8 8 8 8 8 9 9 9 9 10 10 10 11 11 11 11 11 11 11 11 11 11 11 11 11 11 12 12 12 12 13 13 13 13
8 8 8 8 9 8 8 9 9 10 10 10 9 9 10 10 10 10 10 11 11 11 12 12 12 12 12 12 12 12 12 12 12 12 12 12 12 12 12 13 13 13 14
9 9 9 9 9 9 9 10 10 10 10 10 11 11 11 11 11 11 11 11 12 12 13 13 13 13 13 13 13 13 12 12 12 12 12 12 13 12 13 13 13 13 14
10 10 10 10 9 10 10 10 10 10 11 12 12 12 12 12 12 12 12 12 13 13 13 13 13 13 14 14 14 14 13 13 13 13 13 13 13 13 14 14 14 14 15
11 10 11 12 11 11 10 10 11 11 11 12 12 12 12 12 13 13 13 13 13 13 14 14 14 14 14 14 14 14 14 13 13 13 13 13 13 13 14 14 14 15 16
11 11 11 12 11 11 11 11 12 12 12 12 13 13 13 14 13 13 13 13 13 14 14 14 14 14 14 14 14 14 14 14 13 13 13 13 14 14 14 14 14 15 16
12 11 12 12 12 12 12 12 12 12 13 13 13 14 14 14 14 13 13 13 14 14 14 14 14 14 15 14 15 15 15 14 14 14 13 13 14 14 14 14 15 16 16
12 11 12 13 13 13 13 13 13 13 13 13 14 14 15 15 14 14 14 15 15 15 15 15 15 15 15 15 15 15 15 14 14 14 13 13 14 14 15 15 15 15 16
12 12 12 13 13 14 14 14 14 14 14 14 14 15 15 15 15 15 15 16 16 16 16 16 16 16 15 15 15 15 15 15 15 15 15 14 14 14 15 15 15 16 16
13 13 13 13 14 14 14 14 15 15 15 15 15 15 15 15 15 15 16 16 17 17 17 17 17 17 16 16 16 16 16 16 16 15 15 15 15 15 16 16 16 16 16
14 14 14 14 14 15 15 15 15 15 16 16 16 16 16 16 16 16 16 17 17 17 18 17 18 17 17 17 17 16 17 16 16 16 16 16 16 16 16 17 17 17 17
14 15 15 15 15 15 16 16 16 17 17 17 17 17 17 17 17 18 18 18 18 18 18 17 18 18 17 17 17 17 17 17 17 17 17 17 18 18 18 18 18 18 18
16 16 16 17 16 16 17 17 17 18 18 18 18 18 18 18 18 19 19 19 19 19 19 18 18 18 18 18 18 18 18 18 18 18 18 19 19 19 18 18 18 18 19
18 17 17 17 17 17 18 18 18 18 19 19 19 19 18 19 19 20 20 21 21 20 19 18 18 19 19 18 18 19 19 19 19 20 19 19 19 19 19 19 19 19 19
18 18 18 19 19 19 19 19 19 19 19 20 20 20 19 19 20 20 20 21 21 20 20 19 20 20 20 20 20 20 20 20 20 20 20 21 20 20 20 20 19 20 20
20 20 20 20 20 21 21 20 20 20 20 21 21 21 21 21 21 21 21 22 22 21 21 21 21 21 21 22 22 21 21 21 21 21 21 21 21 21 21 20 20 20 20
21 21 21 22 22 23 22 22 21 21 22 22 22 22 22 22 22 22 22 22 22 22 22 22 22 22 22 23 24 23 22 22 22 21 21 21 20 21 21 21 21 20 20
22 22 23 23 23 23 23 22 22 23 23 22 23 23 24 24 24 23 23 23 22 22 23 23 23 23 23 24 25 25 25 24 23 23 22 22 22 22 22 22 22 22 22
23 23 23 23 22 23 22 22 23 24 24 23 23 24 24 24 24 24 24 24 24 24 24 24 24 24 24 24 25 26 26 25 25 24 24 23 23 23 23 23 23 23 24
24 24 24 23 23 23 24 23 24 24 24 24 25 25 25 25 25 25 25 26 25 25 25 24 25 25 25 25 25 26 26 26 25 25 24 24 24 24 24 24 24 24 25
25 25 25 25 25 25 25 25 25 25 25 25 26 27 27 26 26 26 26 26 27 26 26 25 25 26 26 26 26 25 26 26 26 26 25 25 25 25 25 25 26 26 26
26 26 26 26 26 26 26 26 26 26 26 26 27 27 27 27 27 27 27 27 27 27 26 26 26 26 26 26 26 25 26 26 26 27 27 27 27 26 25 26 26 26 26
27 27 27 27 27 28 27 27 27 27 27 28 28 28 28 28 28 28 27 27 27 27 27 27 27 26 26 26 27 27 27 27 27 27 27 27 27 26 26 26 27 26 27
28 28 28 28 28 28 28 28 28 27 28 28 28 29 29 29 28 28 28 29 29 29 28 28 28 28 27 27 27 28 28 28 28 28 28 28 28 28 27 28 28 28 28
29 29 29 29 29 28 28 28 28 28 28 28 29 29 29 30 29 29 29 30 31 31 30 30 30 29 29 29 29 29 29 29 29 29 29 29 29 29 29 29 29 30 29
Wind_Direction
282 281 282 278 273 274 275 277 277 277 278 276 276 273 272 273 276 281 286 290 291 292 296 294 292 294 294 292 291 290 287 283 280 276 273 269 267 264 260 260 260 258 257
281 279 279 278 275 272 273 273 274 272 273 274 272 273 272 272 275 279 282 287 290 293 296 296 295 293 293 291 289 288 287 283 280 277 276 272 268 264 258 258 258 259 256
283 279 280 281 281 273 273 275 272 271 272 274 275 276 276 274 275 279 282 287 290 293 295 297 296 294 292 290 289 286 285 281 277 274 274 272 270 267 262 259 259 260 257
282 281 278 280 282 278 273 274 272 271 273 273 274 278 278 277 278 279 281 284 287 290 292 293 295 295 293 290 290 288 288 284 280 277 274 272 269 268 266 263 262 263 262
280 281 279 278 279 283 275 276 276 273 274 275 275 275 277 279 280 281 282 284 288 290 291 292 293 293 294 293 290 289 289 287 283 280 276 275 273 270 268 264 262 262 261
281 281 278 275 275 278 276 280 278 276 276 277 275 274 275 277 280 282 282 284 286 287 289 291 291 291 292 292 291 291 289 286 283 281 279 276 274 272 270 268 266 264 262
279 278 275 273 272 271 274 277 276 277 277 278 277 276 276 278 279 281 282 283 283 283 286 289 290 291 291 290 290 290 287 283 281 280 279 276 273 271 269 268 268 267 265
272 274 274 272 271 269 269 274 276 277 279 279 279 279 279 279 279 280 281 281 281 281 283 285 287 289 291 291 291 289 286 282 280 279 277 276 274 272 270 270 268 267 266
267 268 271 273 272 271 268 271 276 278 279 281 280 279 279 279 279 280 280 281 281 280 280 281 284 287 289 290 290 288 284 282 280 279 279 278 277 274 272 271 270 269 267
265 263 264 267 268 270 271 270 274 278 279 280 281 282 281 280 279 280 281 282 282 281 280 280 283 284 286 286 287 287 285 281 280 280 281 280 280 278 275 274 274 272 268
263 258 260 262 265 268 269 271 272 275 277 279 280 281 281 281 279 278 279 281 282 282 281 280 281 282 283 284 286 286 283 280 279 278 279 279 279 278 277 276 275 273 270
263 259 259 259 263 267 269 274 274 275 276 277 279 279 280 281 279 278 279 281 282 282 281 280 280 281 281 281 283 285 282 279 277 276 277 278 278 280 279 276 275 273 272
264 264 258 259 263 266 268 271 275 277 276 276 277 277 278 279 278 277 278 281 281 281 280 279 280 280 280 280 280 282 282 280 277 275 275 276 277 279 279 277 275 273 271
271 269 263 261 262 262 265 270 274 277 276 276 277 276 278 280 279 277 277 279 280 280 280 278 278 278 279 278 278 279 279 280 278 275 274 275 276 278 280 279 275 272 270
271 270 267 264 264 265 266 269 272 274 276 278 277 277 279 280 278 276 276 277 278 279 279 279 278 276 276 278 277 276 277 278 278 276 274 275 276 277 278 278 276 272 269
275 275 272 268 265 266 267 269 271 273 276 277 278 280 280 279 279 278 277 277 278 279 279 280 280 279 278 278 279 275 274 275 277 278 276 273 274 275 275 275 275 272 270
277 279 279 276 270 269 270 269 272 274 275 277 279 279 279 279 279 277 278 278 277 277 278 278 279 278 278 278 278 278 276 275 276 276 276 273 272 272 272 272 273 273 271
278 278 278 277 274 272 271 271 273 275 276 276 277 278 279 280 279 278 277 278 278 277 277 278 279 278 277 276 276 276 276 275 275 275 274 274 272 271 270 270 271 271 272
278 278 276 276 275 274 271 269 272 274 275 275 275 276 278 279 278 279 278 277 278 277 277 278 278 277 277 275 275 275 276 276 275 275 274 272 271 271 272 271 271 271 272
278 276 275 275 276 275 275 272 272 273 274 275 275 275 277 278 279 278 278 277 277 277 277 277 276 276 277 276 276 276 275 274 273 274 274 274 272 271 272 272 272 271 271
276 275 275 274 276 274 275 275 274 274 274 274 274 275 276 277 278 277 277 277 278 277 277 276 276 276 276 276 277 276 274 274 272 272 274 274 273 270 270 272 272 271 269
274 275 275 273 274 273 273 272 271 272 272 273 273 274 275 275 276 276 275 275 276 277 278 278 277 276 276 276 276 276 274 272 272 272 274 274 274 271 271 271 271 271 269
274 274 274 272 271 272 273 273 271 271 271 272 273 274 273 275 275 276 276 274 274 275 277 278 279 278 275 276 276 275 274 272 271 271 272 273 273 273 271 272 272 272 270
275 275 275 273 272 272 272 273 272 272 271 272 273 273 274 275 275 275 274 273 274 275 276 277 277 277 277 278 277 277 275 273 273 272 271 272 273 273 272 272 273 272 271
277 277 276 275 274 272 272 272 273 273 273 273 274 273 274 273 273 272 273 274 275 276 275 276 276 276 277 278 278 278 277 274 273 272 272 272 272 272 273 271 271 272 271
277 277 276 276 276 275 273 272 272 272 273 274 275 274 274 274 274 274 273 275 275 275 275 275 274 274 276 276 276 277 276 274 273 272 272 272 273 271 271 271 271 271 270
Height
5835 5835 5835 5835 5835 5835 5834 5834 5834 5834 5834 5834 5834 5834 5834 5833 5833 5833 5832 5832 5831 5830 5829 5829 5828 5827 5826 5825 5825 5824 5823 5823 5822 5822 5821 5821 5821 5820 5820 5821 5821 5821 5821
5833 5833 5832 5832 5832 5832 5832 5832 5832 5832 5832 5832 5831 5831 5831 5831 5830 5830 5830 5829 5828 5827 5827 5826 5825 5824 5823 5822 5822 5821 5820 5820 5819 5819 5818 5818 5818 5818 5817 5817 5817 5817 5818
5830 5830 5830 5829 5829 5829 5829 5829 5829 5829 5829 5829 5828 5828 5828 5828 5827 5827 5827 5826 5825 5825 5824 5823 5822 5821 5820 5819 5819 5818 5817 5816 5816 5815 5815 5815 5814 5814 5814 5814 5814 5814 5814
5827 5827 5827 5827 5826 5826 5826 5826 5826 5826 5826 5826 5825 5825 5825 5824 5824 5824 5823 5823 5822 5821 5821 5820 5819 5818 5817 5816 5815 5814 5814 5813 5812 5812 5811 5811 5811 5811 5811 5811 5811 5811 5811
5824 5824 5824 5824 5823 5823 5823 5823 5823 5823 5823 5822 5822 5822 5821 5821 5821 5820 5820 5819 5819 5818 5817 5816 5815 5814 5813 5812 5812 5811 5810 5809 5808 5808 5807 5807 5807 5807 5807 5807 5807 5807 5807
5821 5820 5820 5820 5820 5820 5819 5820 5820 5819 5819 5819 5819 5818 5818 5817 5817 5816 5816 5815 5815 5814 5813 5812 5811 5811 5810 5809 5808 5807 5806 5805 5804 5804 5803 5803 5803 5803 5803 5803 5803 5803 5803
5817 5817 5817 5816 5816 5816 5816 5816 5816 5816 5816 5815 5815 5814 5814 5814 5813 5812 5812 5811 5811 5810 5809 5808 5807 5806 5805 5805 5804 5803 5801 5801 5800 5799 5799 5799 5799 5798 5798 5798 5798 5798 5798
5813 5813 5813 5813 5813 5813 5813 5813 5812 5812 5812 5811 5811 5810 5810 5809 5809 5808 5808 5807 5807 5806 5805 5804 5803 5802 5801 5800 5799 5798 5797 5796 5796 5795 5795 5795 5794 5794 5794 5794 5794 5793 5793
5809 5809 5808 5808 5809 5809 5809 5809 5809 5808 5808 5807 5807 5806 5805 5805 5804 5804 5803 5802 5802 5801 5801 5800 5799 5798 5797 5796 5795 5794 5793 5792 5792 5791 5791 5790 5790 5789 5789 5789 5789 5789 5789
5805 5805 5804 5804 5804 5805 5804 5805 5804 5804 5804 5803 5802 5801 5800 5800 5799 5799 5798 5797 5797 5796 5795 5795 5794 5793 5793 5792 5791 5790 5788 5788 5787 5787 5786 5786 5785 5785 5785 5785 5785 5784 5784
5800 5800 5800 5800 5800 5800 5800 5800 5800 5800 5799 5798 5798 5796 5796 5795 5795 5794 5793 5793 5792 5791 5790 5789 5789 5788 5788 5787 5786 5785 5784 5783 5783 5782 5782 5781 5781 5780 5780 5780 5780 5780 5780
5795 5795 5795 5796 5796 5796 5795 5795 5795 5795 5794 5793 5792 5792 5791 5790 5789 5789 5788 5788 5786 5785 5785 5784 5783 5783 5782 5782 5781 5780 5779 5778 5778 5778 5777 5777 5776 5776 5775 5775 5775 5774 5775
5790 5790 5790 5790 5790 5790 5790 5790 5790 5789 5789 5788 5787 5786 5785 5785 5784 5783 5783 5782 5781 5780 5779 5779 5778 5777 5777 5776 5776 5775 5774 5773 5773 5773 5772 5772 5771 5771 5770 5769 5769 5769 5769
5785 5784 5784 5784 5784 5784 5784 5784 5784 5784 5783 5782 5781 5781 5780 5779 5778 5777 5777 5776 5775 5774 5774 5773 5772 5772 5771 5770 5770 5769 5769 5768 5767 5767 5766 5766 5766 5765 5764 5764 5763 5763 5763
5779 5779 5779 5779 5779 5778 5778 5778 5778 5778 5777 5776 5776 5775 5774 5773 5772 5771 5771 5770 5769 5768 5767 5767 5766 5766 5765 5765 5764 5764 5763 5762 5761 5761 5760 5760 5760 5759 5758 5758 5757 5757 5757
5774 5773 5773 5773 5773 5772 5772 5772 5772 5772 5771 5770 5770 5769 5768 5767 5766 5765 5764 5764 5763 5762 5761 5761 5760 5760 5759 5758 5758 5757 5757 5756 5755 5755 5754 5754 5753 5753 5752 5752 5751 5751 5751
5768 5768 5767 5766 5766 5766 5766 5766 5765 5765 5764 5764 5763 5762 5761 5760 5759 5758 5758 5757 5756 5756 5755 5755 5754 5754 5753 5752 5752 5751 5750 5750 5749 5748 5748 5747 5747 5746 5746 5745 5745 5745 5745
5762 5762 5761 5760 5760 5759 5759 5759 5758 5758 5757 5757 5756 5755 5754 5753 5753 5752 5751 5750 5749 5749 5748 5748 5747 5747 5746 5746 5745 5744 5743 5743 5743 5742 5741 5741 5740 5740 5739 5739 5739 5739 5738
5756 5756 5755 5754 5753 5752 5752 5751 5751 5751 5750 5750 5749 5749 5748 5747 5745 5745 5744 5743 5742 5742 5741 5741 5740 5740 5739 5738 5737 5737 5736 5736 5735 5735 5734 5734 5733 5733 5732 5732 5732 5732 5732
5750 5749 5748 5747 5746 5745 5744 5744 5744 5743 5743 5743 5742 5741 5740 5739 5738 5737 5737 5736 5735 5734 5734 5733 5732 5732 5731 5730 5729 5729 5728 5728 5728 5727 5726 5726 5726 5725 5724 5724 5724 5724 5724
5743 5742 5741 5740 5739 5738 5737 5737 5736 5736 5736 5735 5734 5733 5733 5732 5731 5730 5729 5728 5727 5727 5726 5725 5725 5724 5723 5722 5721 5720 5720 5720 5720 5719 5719 5718 5718 5717 5717 5716 5716 5716 5716
5735 5734 5733 5733 5732 5731 5730 5730 5729 5729 5728 5727 5726 5725 5725 5724 5723 5722 5721 5720 5719 5719 5718 5717 5716 5716 5715 5714 5713 5712 5712 5712 5711 5711 5711 5711 5710 5709 5709 5708 5708 5708 5708
5727 5726 5726 5725 5724 5723 5722 5722 5721 5721 5720 5719 5718 5717 5716 5715 5714 5713 5713 5712 5711 5710 5710 5709 5708 5707 5707 5706 5705 5704 5704 5703 5703 5703 5702 5702 5702 5701 5701 5700 5699 5699 5699
5718 5718 5717 5716 5716 5715 5714 5713 5713 5712 5711 5711 5710 5709 5708 5707 5706 5704 5704 5703 5703 5702 5702 5701 5700 5699 5698 5697 5696 5696 5695 5694 5694 5694 5693 5693 5693 5692 5692 5691 5691 5691 5690
5710 5709 5708 5708 5707 5706 5705 5704 5703 5703 5702 5701 5700 5700 5699 5698 5696 5696 5695 5694 5694 5694 5693 5692 5691 5691 5690 5689 5688 5687 5686 5685 5685 5684 5684 5684 5684 5683 5683 5683 5682 5682 5682
5701 5700 5699 5698 5697 5697 5695 5695 5694 5693 5692 5691 5691 5690 5689 5688 5687 5686 5686 5685 5685 5684 5683 5683 5682 5681 5681 5680 5679 5678 5677 5676 5675 5675 5675 5675 5675 5674 5674 5673 5673 5672 5672